{"data":{"norad_id":68422,"intl_designator":"2026-067G","name":"BRO-19","alt_names":[],"object_type":"PAYLOAD","status":"ACTIVE","operator":null,"country":"FR","launch_date":"2026-03-30","launch_site_code":"AFWTR","launch_vehicle":null,"mission":null,"orbit_class":"UNKNOWN","rcs_meters":null,"size_class":null,"mass_kg":null,"dimensions":null,"purposes":[],"wikipedia_slug":null,"has_3d_model":false,"image_url":null,"decayed_at":null,"tle_current":{"epoch":"2026-05-24T20:34:14.756736Z","epoch_age_seconds":90563,"freshness":"FRESH","line1":"1 68422U 26067G   26144.85711524  .00003118  00000+0  15396-3 0  9992","line2":"2 68422  97.4467 103.6572 0001714  60.6650 299.4755 15.18617793  8402","mean_motion":15.18617793,"eccentricity":0.0001714,"inclination_deg":97.4467,"raan_deg":103.6572,"arg_perigee_deg":60.665,"mean_anomaly_deg":299.4755,"bstar":0.00015396,"rev_number":840,"period_min":94.823069151278,"perigee_km":508.83643075995,"apogee_km":511.19768997184,"semimajor_km":6888.1540603659,"source":"CELESTRAK","updated_at":"2026-05-25T13:38:07.812015Z"}}}